Flag for U.S.A. Weather past 2 weeks in Inglewood, California, U.S.A.

Now
69 °F

Clear.


Feels Like: 69 °F
Forecast: 67 / 81 °F
Wind: 5 mph from West

Location: Hawthorne Municipal Airport

Current Time: Aug 29, 2014 at 11:51:58 PM

Latest Report: Aug 29, 2014 at 10:53 PM


Visibility: 10 mi

Pressure: 29.83 "Hg

Humidity: 81%

Dew point: 63 °F

Location of InglewoodLocation

Historic Weather in Inglewood — Graph

°F

Inglewood temperature yesterday

Maximum temperature yesterday: 86 °F (at 4:53 PM)
Minimum temperature yesterday: 70 °F (at 5:53 AM)
Average temperature yesterday: 78 °F

Past Weeks' High & Low Weather Summary

 TemperatureHumidityPressure
High86 °F (Aug 27, 12:53 PM)94% (Aug 15, 3:53 AM)30.03 "Hg (Aug 15, 3:53 AM)
Low64 °F (Aug 15, 3:53 AM)18% (Aug 28, 4:53 PM)29.79 "Hg (Aug 18, 4:53 PM)
Average72 °F69%29.92 "Hg
* Reported Aug 14 9:53 PM — Aug 29 9:53 PM, Inglewood, Weather by CustomWeather, © 2014

Note: Actual official high and low records may vary slightly from our data, if they occured in-between our weather recording intervals... More about our weather records

Advertising

Inglewood weather history for previous 24 hours

 ConditionsComfort  
Time TempWeatherWind HumidityBarometerVisibility
9:53 PM
Aug 29
69 °FClear.6 mph84%29.83 "Hg10 mi
8:53 PM70 °FClear.5 mph81%29.82 "Hg10 mi
7:53 PM70 °FSunny.7 mph79%29.81 "Hg10 mi
6:53 PM73 °FSunny.10 mph66%29.80 "Hg10 mi
5:53 PM75 °FSunny.8 mph62%29.80 "Hg10 mi
4:53 PM76 °FSunny.12 mph64%29.81 "Hg10 mi
3:53 PM77 °FSunny.10 mph62%29.82 "Hg10 mi
2:53 PM78 °FSunny.13 mph60%29.83 "Hg10 mi
1:53 PM79 °FSunny.12 mph58%29.84 "Hg10 mi
11:53 AM81 °FSunny.7 mph54%29.86 "Hg10 mi
10:53 AM79 °FSunny.No wind54%29.88 "Hg10 mi
9:53 AM76 °FSunny.3 mph62%29.89 "Hg10 mi
8:53 AM73 °FSunny.6 mph71%29.88 "Hg10 mi
7:53 AM69 °FSunny.No wind84%29.88 "Hg10 mi
6:53 AM68 °FClear.No wind84%29.88 "Hg9 mi
5:53 AM68 °FClear.No wind87%29.87 "Hg10 mi
4:53 AM68 °FClear.No wind82%29.86 "Hg10 mi
3:53 AM68 °FClear.No wind82%29.86 "Hg10 mi
2:53 AM68 °FClear.No wind82%29.87 "Hg10 mi
1:53 AM69 °FClear.5 mph81%29.88 "Hg10 mi
12:53 AM71 °FClear.5 mph71%29.89 "Hg10 mi
11:53 PM
Aug 28
72 °FClear.No wind64%29.89 "Hg10 mi
Weather by CustomWeather, © 2014

See weather overviewHow to use our weather pages